Regional Weather Roundup
Issued by NWS

Home | Current Version | Previous Version | Graphics & Text | Print | Product List | Glossary On
Versions: 1 2 3 4 5 6 7 8 9 10 11 12 13 14 15 16 17 18 19 20 21 22 23 24 25 26 27 28 29 30 31 32 33 34 35 36 37 38 39 40 41 42 43 44 45 46 47 48 49 50
000
ASUS43 KIND 170059
RWRIN

WEATHER ROUNDUP FOR INDIANA
NATIONAL WEATHER SERVICE INDIANAPOLIS IN
800 PM EST TUE JAN 16 2018

NOTE: "FAIR" INDICATES FEW OR NO CLOUDS BELOW 12,000 FEET WITH NO
SIGNIFICANT WEATHER AND/OR OBSTRUCTIONS TO VISIBILITY.

* - STATION DOES NOT REPORT WEATHER SUCH AS PRECIPITATION OR FOG.

+ - STATION NOT QUALITY CONTROLLED BY THE NATIONAL WEATHER SERVICE.
    USE DATA WITH CAUTION...ESPECIALLY DEWPOINT AND RELATIVE
    HUMIDITY OBSERVATIONS.

INZ001>003-010>013-019-020-170200-
NORTHWEST INDIANA

CITY           SKY/WX    TMP DP  RH WIND       PRES   REMARKS
GARY /AIRPORT/ MOCLDY    23  12  63 W12       30.51R WCI  12
KNOX *+        CLOUDY    14  12  92 SW7       30.49R WCI   4
MONTICELLO +   FLURRIES   9   5  83 SW8       30.53R WCI  -3

$$

LMZ046-743>745-170200-
SOUTHERN LAKE MICHIGAN

STATION/POSITION TIME  TEMP    WIND        PRES    WAVE
                       AIR SEA DIR/SP/G            HT
                 (UTC) (F)     (DEG/KT/KT) (MB)    (FT)
BURNS HARBOR     0030   23     330/ 17/ 24 1032.2R
MICHIGAN CITY    0030          150/  8/  9   N/A

$$

INZ004-005-014>016-021>024-170200-
NORTH CENTRAL INDIANA

CITY           SKY/WX    TMP DP  RH WIND       PRES   REMARKS
ELKHART        FAIR       9   3  78 CALM      30.47S
GOSHEN         MOCLDY     4   1  88 S5        30.48R WCI  -5
SOUTH BEND     FAIR       8   5  87 S6        30.47S WCI  -2

$$

INZ006>009-017-018-025>027-170200-
NORTHEAST INDIANA

CITY           SKY/WX    TMP DP  RH WIND       PRES   REMARKS
FORT WAYNE     FLURRIES   9   4  80 SW9       30.50R WCI  -4
KENDALLVILLE + FAIR       3   1  88 W3        30.46S

$$

INZ028-029-035-036-043>045-051>053-170200-
WEST CENTRAL INDIANA

CITY           SKY/WX    TMP DP  RH WIND       PRES   REMARKS
GREENCASTLE +  FLURRIES   5   0  78 W3        30.58R
LAFAYETTE      CLOUDY     8   4  83 W13       30.57R WCI  -8
TERRE HAUTE    FLURRIES   6   0  76 W8        30.62R WCI  -7

$$

INZ030>032-037>040-046>048-054>057-064-065-170200-
CENTRAL INDIANA

CITY           SKY/WX    TMP DP  RH WIND       PRES   REMARKS
GREENWOOD *+   CLOUDY     8   1  74 W8        30.57R WCI  -5
INDIANAPOLIS   CLOUDY     6   0  76 W14       30.57R WCI -11
-EAGLE CREEK   CLOUDY     6  -1  73 W7        30.56R WCI  -6
MT COMFORT *+  CLOUDY     5   3  92 W12       30.55S WCI -11
SHELBYVILLE    FLURRIES   6  -1  73 W10       30.56R WCI  -9

$$

INZ033-034-041-042-049-050-058-059-170200-
EAST CENTRAL INDIANA

CITY           SKY/WX    TMP DP  RH WIND       PRES   REMARKS
MUNCIE         CLOUDY     7   0  73 SW10      30.52R WCI  -8
RICHMOND +     CLOUDY     5   1  85 W14       30.51R WCI -12

$$

INZ060-061-067>069-081>083-085>088-170200-
SOUTHWEST INDIANA

CITY           SKY/WX    TMP DP  RH WIND       PRES   REMARKS
EVANSVILLE     FLURRIES   7   2  80 W6        30.66S WCI  -3
HUNTINGBURG +  FLURRIES   6   1  80 W7        30.64S WCI  -6

$$

INZ062-063-066-070>080-084-089>092-170200-
SOUTH CENTRAL AND SOUTHEAST INDIANA

CITY           SKY/WX    TMP DP  RH WIND       PRES   REMARKS
BLOOMINGTON    CLOUDY     5  -1  76 W5        30.58S WCI  -4
FRENCH LICK *+ CLOUDY     5  -2  72 W3        30.60R
MADISON *+     CLOUDY     9   1  72 W8        30.59R WCI  -4
SEYMOUR +      FLURRIES   7   0  72 W10       30.61R WCI  -8

$$




USA.gov is the U.S. government's official web portal to all federal, state and local government web resources and services.